Location: Haslohfurth
(53.7413°N, 9.9961°E)
Time: 21:56:37
(UTC+00:00)

Daily predictions for brighter satellites

Satellite Brightness Start Highest point End
(mag) Time Altitude Azimuth Time Altitude Azimuth Time Altitude Azimuth
CSL-04 Rocket 3.8 17:17:13 10° SE 17:22:36 61° ENE 17:27:58 10° N
STARLINK-69 3.6 17:19:45 10° W 17:23:47 79° S 17:27:50 10° E
ADEOS Rocket 4.0 17:17:21 10° NNE 17:24:34 39° E 17:31:36 10° SSE
Cosmos 2233 Rocket 4.0 17:18:41 10° S 17:24:48 70° E 17:31:01 10° NNE
STARLINK-21 3.6 17:21:15 10° WSW 17:25:17 78° S 17:29:19 10° E
STARLINK-1059 4.1 17:21:17 10° SW 17:25:18 50° SSE 17:29:20 10° E
Cosmos 1862 Rocket 3.7 17:21:01 10° NNW 17:25:23 81° W 17:29:45 10° S
STARLINK-45 3.6 17:23:06 10° W 17:27:08 80° S 17:31:11 10° E
Timation 2 Rocket 4.2 17:20:31 10° NNW 17:27:26 71° NE 17:34:18 10° SE
STARLINK-70 3.6 17:24:41 10° W 17:28:42 80° S 17:32:45 10° E
STARLINK-76 3.6 17:26:14 10° W 17:30:15 79° S 17:34:18 10° E
STARLINK-1057 4.0 17:26:15 10° SW 17:30:17 52° SSE 17:34:19 10° E
COSMO-SKYMED 1 2.6 17:25:57 10° NNE 17:30:17 62° ESE 17:34:35 10° S
USA 238 DEB 4.1 17:23:48 10° NW 17:30:45 56° NNE 17:37:57 10° ESE
USA 238 4.1 17:23:54 10° NW 17:30:51 56° NNE 17:38:02 10° ESE
STARLINK-23 3.6 17:27:52 10° W 17:31:54 80° S 17:35:56 10° E
Cosmos 1937 Rocket 3.7 17:27:20 10° NNW 17:32:31 54° ENE 17:37:37 10° SE
STARLINK-32 3.6 17:29:31 10° W 17:33:33 80° S 17:37:35 10° E
CZ-2D R/B 3.3 17:30:10 10° SSE 17:34:00 61° ENE 17:37:52 10° N
Cosmos 1939 Rocket 2.9 17:30:57 10° SSE 17:35:03 66° ENE 17:39:11 10° N
STARLINK-40 3.6 17:31:11 10° W 17:35:13 80° S 17:39:16 10° E
STARLINK-1034 3.9 17:31:11 10° WSW 17:35:14 55° SSE 17:39:18 10° E
STARLINK-44 3.6 17:32:50 10° W 17:36:52 81° S 17:40:55 10° E
STARLINK-37 3.6 17:34:35 10° W 17:38:38 81° S 17:42:37 10° E
NOSS 3-1 (C) 3.7 17:33:23 10° SW 17:39:08 76° NW 17:46:00 10° NE
STARLINK-36 3.6 17:36:06 10° W 17:40:08 81° S 17:44:04 11° E
STARLINK-1068 3.9 17:36:08 10° WSW 17:40:12 57° SSE 17:44:11 11° E
Cosmos 2263 4.2 17:35:09 10° SSW 17:40:55 78° ESE 17:46:41 10° NE
SJ 16-02 1.3 17:37:07 10° NNW 17:41:32 72° ENE 17:45:56 10° SSE
STARLINK-68 3.6 17:37:58 10° W 17:42:01 82° S 17:45:52 11° E
Cosmos 1943 Rocket 2.6 17:37:05 10° SW 17:42:38 68° NW 17:48:10 10° NNE
STARLINK-22 3.0 17:39:33 10° W 17:42:52 80° S 17:45:56 12° E
Cosmos 1703 Rocket 3.6 17:38:42 10° N 17:43:09 63° ENE 17:47:36 10° SSE
STARLINK-63 3.6 17:39:32 10° W 17:43:34 82° S 17:47:21 11° E
STARLINK-41 3.0 17:41:07 10° W 17:44:26 80° S 17:47:28 12° E
STARLINK-35 3.6 17:41:05 10° W 17:45:08 82° S 17:48:52 12° E
Cosmos 2297 Rocket 2.9 17:40:13 10° NNW 17:45:27 36° NE 17:50:40 10° ESE
Cosmos 2242 Rocket 3.7 17:41:08 10° NNW 17:45:43 85° W 17:50:17 10° S
CSL-04 Debris 4.2 17:40:39 10° SSE 17:46:08 88° ENE 17:51:41 10° NNW
STARLINK-51 3.6 17:42:44 10° W 17:46:47 82° S 17:50:27 12° E
STARLINK-30 3.6 17:44:23 10° W 17:48:26 82° S 17:52:02 13° E
CZ-4 R/B 2.0 17:44:18 10° S 17:48:27 65° WSW 17:52:32 10° NNW
STARLINK-72 3.6 17:46:03 10° W 17:50:05 82° S 17:53:38 13° E
STARLINK-1060 3.8 17:46:02 10° WSW 17:50:07 61° SSE 17:53:44 13° E
Cosmos 1340 2.7 17:47:22 10° SSW 17:51:07 84° WNW 17:54:55 10° NNE
SJ-6B 4.0 17:48:14 10° ESE 17:51:13 22° ENE 17:54:15 10° N
STARLINK-75 3.1 17:48:13 10° W 17:51:34 77° S 17:54:24 14° E
STARLINK-50 3.6 17:47:43 10° W 17:51:46 82° S 17:55:14 14° E
STARLINK-59 3.6 17:49:28 10° W 17:53:30 82° S 17:56:55 14° E
STARLINK-1016 3.1 17:50:08 10° W 17:53:35 80° S 17:56:23 15° E
Lacrosse 4 Rocket 3.6 17:51:11 10° W 17:54:40 23° NNW 17:58:14 10° NNE
STARLINK-56 3.5 17:51:02 10° W 17:55:04 82° S 17:58:24 15° E
STARLINK-1030 3.8 17:51:00 10° WSW 17:55:06 63° SSE 17:58:32 14° E
STARLINK-1008 3.1 17:52:11 10° W 17:55:39 81° S 17:58:22 16° E
Cosmos 1869 Rocket 4.2 17:51:44 10° SSE 17:55:40 33° E 17:59:34 10° NNE
NOAA 11 4.5 17:50:21 10° S 17:55:46 74° WSW 18:01:14 10° NNW
Okean-O 4.5 17:52:36 10° SSW 17:56:41 36° W 18:00:49 10° NNW
STARLINK-73 3.5 17:52:40 10° W 17:56:43 82° S 18:00:00 15° E
Cosmos 2278 Rocket 4.4 17:53:04 10° WNW 17:57:03 19° NNW 18:01:03 10° NNE
Genesis I 3.1 17:53:19 10° NW 17:57:13 75° NE 18:01:04 10° SE
Cosmos 1515 4.3 17:53:47 10° N 17:57:18 35° ENE 18:00:48 10° SE
STARLINK-38 3.5 17:54:21 10° W 17:58:23 82° S 18:01:37 16° E
Resurs 01 Rocket 3.3 17:57:11 13° ENE 17:58:51 16° NE 18:01:29 10° NNE
STARLINK-65 3.5 17:55:59 10° W 18:00:02 82° S 18:03:11 16° E
STARLINK-1020 3.7 17:55:58 10° WSW 18:00:04 66° SSE 18:03:19 16° E
STARLINK-1025 3.1 17:56:37 10° W 18:00:05 81° S 18:02:39 17° E
COSMOS 2487 4.0 17:57:21 10° NW 18:00:36 38° WSW 18:03:49 10° S
Okean 3 4.1 17:57:29 10° N 18:01:20 33° ENE 18:05:07 10° SE
H-2A R/B 2.5 17:56:20 10° SE 18:01:29 45° ENE 18:06:40 10° N
Lacrosse 5 2.9 17:57:23 10° S 18:01:41 28° SE 18:04:56 15° E
STARLINK-53 3.5 17:57:44 10° W 18:01:47 82° S 18:04:52 17° E
STARLINK-1017 3.1 17:58:51 10° W 18:02:19 81° S 18:04:47 18° E
Cosmos 1346 Rocket 2.9 17:59:25 10° SSW 18:03:22 80° WNW 18:07:20 10° NNE
Cosmos 44 Rocket 4.0 17:59:28 10° NW 18:04:06 55° SW 18:08:47 10° SSE
STARLINK-58 3.2 18:01:04 10° W 18:04:38 79° S 18:07:08 18° E
USA 186 2.5 18:03:16 18° ESE 18:04:38 26° ENE 18:07:11 10° N
Cosmos 2227 Rocket 2.7 17:59:30 10° NNW 18:04:53 42° NE 18:09:26 14° ESE
Cosmos 1656 Rocket 3.6 17:59:25 10° SSW 18:04:59 80° ESE 18:10:39 10° NNE
STARLINK-1052 3.7 18:00:54 10° WSW 18:05:01 68° SSE 18:08:04 17° E
STARLINK-62 3.2 18:02:46 10° W 18:06:20 79° S 18:08:46 19° E
STARLINK-1063 4.4 18:03:08 10° SW 18:06:55 35° SSE 18:09:25 18° E
USA 116 3.9 18:03:30 10° NNE 18:07:40 79° ESE 18:12:21 10° SSW
STARLINK-34 3.2 18:04:23 10° W 18:07:57 78° S 18:10:19 20° ESE
STARLINK-1047 3.7 18:04:49 10° WSW 18:08:58 70° SSE 18:11:54 19° E
STARLINK-1048 3.1 18:05:38 10° W 18:09:06 81° S 18:11:19 21° E
YAOGAN 1 3.5 18:05:10 10° S 18:09:24 53° W 18:13:40 10° NNW
HJ-1C 3.2 18:06:12 10° SSE 18:09:28 75° ENE 18:12:48 10° N
Cosmos 468 Rocket 4.1 18:05:19 10° S 18:10:28 54° ESE 18:15:41 10° NNE
IRS-1A Rocket 4.2 18:05:30 10° SSE 18:10:56 66° ENE 18:16:26 10° NNW
STARLINK-1049 3.1 18:07:55 10° W 18:11:23 81° S 18:13:31 22° E
STARLINK-1064 4.4 18:08:02 10° SW 18:11:51 37° SSE 18:14:11 20° E
Meteor 1-20 Rocket 4.1 18:06:34 10° S 18:12:03 76° E 18:17:42 10° NNE
Cosmos 1891 Rocket 4.5 18:07:00 10° S 18:13:10 67° E 18:19:32 10° NNE
STARLINK-1051 3.1 18:10:11 10° W 18:13:40 81° S 18:15:43 23° E
NOSS 2-3 (E) 4.0 18:09:57 10° SW 18:14:30 77° NW 18:20:10 10° NE
STARLINK-1033 3.6 18:10:50 10° WSW 18:14:58 71° SSE 18:17:38 21° E
STARLINK-1028 3.1 18:12:14 10° W 18:15:44 81° S 18:17:43 24° E
USA 234 3.5 18:10:42 14° ENE 18:16:25 69° N 18:22:55 10° W
STARLINK-1041 4.3 18:12:59 10° SW 18:16:51 39° SSE 18:19:00 22° E
STARLINK-1021 3.1 18:14:35 10° W 18:18:04 81° S 18:19:58 25° E
Cosmos 405 3.8 18:14:49 10° NNW 18:18:19 55° W 18:21:48 10° S
Cosmos 489 Rocket 4.5 18:13:26 10° SSW 18:19:42 67° ESE 18:25:58 10° NNE
STARLINK-1023 3.0 18:16:23 10° W 18:19:44 80° S 18:21:25 27° E
Cosmos 1933 Rocket 4.0 18:15:56 10° SSW 18:20:18 66° WNW 18:24:40 10° N
NOSS 3-2 (A) 4.0 18:13:12 10° NW 18:20:23 77° NE 18:27:37 14° SE
STARLINK-1019 3.1 18:16:54 10° W 18:20:24 80° S 18:22:13 26° E
FREGAT/IRIS 2.6 18:19:26 22° SE 18:20:51 45° ENE 18:23:30 10° N
STARLINK-1038 4.2 18:17:51 10° SW 18:21:45 41° SSE 18:23:44 24° E
STARLINK-1012 3.1 18:19:16 10° W 18:22:46 80° S 18:24:30 28° E
Orbus 7S? 3.7 18:17:35 10° WSW 18:24:02 71° NNW 18:26:08 22° ENE
NOSS 3-2 (C) 4.0 18:17:48 10° NW 18:24:52 66° NE 18:31:00 19° ESE
STARLINK-1024 3.6 18:20:49 10° WSW 18:24:57 75° S 18:27:15 25° E
STARLINK-1046 4.1 18:22:47 10° SW 18:26:43 43° SSE 18:28:32 26° E
Cosmos 1898 Rocket 4.4 18:21:59 10° NW 18:26:59 50° WSW 18:31:59 10° S
STARLINK-1026 3.1 18:23:59 10° W 18:27:29 79° S 18:29:02 31° ESE
Nadezhda 4 Rocket 4.0 18:21:17 10° N 18:27:37 80° ENE 18:33:58 10° SSE
Cosmos 1763 Rocket 3.5 18:23:58 10° S 18:29:08 62° ESE 18:34:24 10° NNE
Cosmos 841 Rocket 3.9 18:24:58 10° S 18:29:43 38° ESE 18:34:31 10° NE
NOSS 2-3 (D) 4.2 18:25:13 10° WSW 18:29:45 68° NW 18:35:24 10° NE
STARLINK-1013 3.1 18:26:21 10° W 18:29:52 79° S 18:31:19 33° ESE
STARLINK-24 3.5 18:26:05 10° W 18:30:08 79° S 18:32:06 29° ESE
STARLINK-26 4.0 18:26:54 10° W 18:30:13 43° SSW 18:32:00 22° SE
CENTAUR R/B 3.2 18:22:43 10° NW 18:30:15 63° NNE 18:36:19 21° ESE
ARGOS Delta rocket 3.9 18:27:15 13° SE 18:30:59 48° ENE 18:35:24 10° N
STARLINK-1039 4.1 18:27:47 10° SW 18:31:44 45° SSE 18:33:23 29° ESE
STARLINK-1009 3.1 18:28:43 10° W 18:32:14 78° S 18:33:36 34° ESE
USA 229 DEB 4.3 18:26:28 10° WSW 18:33:01 53° NNW 18:39:58 10° NE
USA 229 4.3 18:26:34 10° WSW 18:33:07 54° NNW 18:40:04 10° NE
Cosmos 2026 Rocket 4.2 18:27:17 10° N 18:33:15 47° ENE 18:38:26 13° SE
STARLINK-1015 3.1 18:31:07 10° W 18:34:38 78° S 18:35:55 36° ESE
Cosmos 2219 3.2 18:28:59 10° NNW 18:34:47 80° ENE 18:39:53 14° SE
STARLINK-1032 3.6 18:30:44 10° WSW 18:34:53 78° S 18:36:47 31° E
Cosmos 2298 Rocket 4.0 18:30:08 10° NNW 18:35:30 72° ENE 18:39:59 15° SE
Meteor 1-4 Rocket 4.0 18:32:44 10° N 18:35:12 22° NE 18:35:12 22° NE
MONITOR-E 3.6 18:35:06 32° SSE 18:36:11 77° ENE 18:38:54 10° N
STARLINK-1045 4.0 18:32:40 10° SW 18:36:39 47° SSE 18:38:07 32° ESE
Meteor 2-11 Rocket 4.4 18:31:18 10° S 18:37:24 89° ESE 18:43:32 10° NNE
STARLINK-1029 2.8 18:34:30 10° W 18:37:40 78° S 18:38:31 45° ESE
STARLINK-33 3.3 18:34:31 10° W 18:37:44 56° SSW 18:38:47 36° SE
STARLINK-55 3.4 18:35:40 10° W 18:38:53 54° SSW 18:39:54 36° SE
SL-08 RB Rocket 3.8 18:36:01 19° SE 18:38:57 51° ENE 18:43:18 10° N
STARLINK-42 3.3 18:35:55 10° W 18:39:06 57° SSW 18:40:03 38° SE
Cosmos 1464 Rocket 4.1 18:33:25 10° S 18:39:49 86° W 18:46:15 10° N
STARLINK-1011 3.6 18:35:43 10° WSW 18:39:51 79° S 18:41:34 34° E
NOSS 3-1 (A) 4.0 18:34:08 10° WSW 18:39:56 59° NNW 18:46:52 10° NE
Okean 1 4.4 18:36:06 10° NNW 18:39:58 47° W 18:43:47 10° SSW
STARLINK-66 3.4 18:36:51 10° W 18:40:03 54° SSW 18:41:02 37° SE
STARLINK-28 3.5 18:37:15 10° W 18:40:27 51° SSW 18:41:25 36° SE
CZ-2C R/B 4.2 18:36:28 10° NE 18:38:36 17° ENE 18:38:36 17° ENE
STARLINK-1031 3.5 18:36:31 10° W 18:40:39 80° S 18:42:20 35° E
Lacrosse 5 rocket 1.6 18:36:06 10° WNW 18:40:41 81° SSW 18:43:01 29° ESE
STARLINK-1014 3.1 18:37:15 10° W 18:40:48 79° S 18:41:53 42° ESE
STARLINK-81 3.5 18:37:09 10° W 18:41:12 77° S 18:42:44 36° ESE
Cosmos 2263 Rocket 3.7 18:37:04 10° NNW 18:41:22 21° NNE 18:43:32 17° ENE
CZ-2C R/B 4.4 18:37:25 10° NNE 18:41:38 33° E 18:45:53 10° SSE
STARLINK-1050 3.9 18:37:39 10° SW 18:41:40 50° SSE 18:42:59 35° ESE
Cosmos 2208 Rocket 4.1 18:37:41 10° S 18:42:55 53° ESE 18:48:05 10° NNE
STARLINK-54 3.5 18:39:00 10° W 18:43:01 76° S 18:44:30 37° ESE
Cosmos 1674 Rocket 4.0 18:39:33 10° N 18:43:50 42° ENE 18:45:11 32° ESE
Meteor 2-4 Rocket 3.8 18:38:26 10° NNW 18:44:25 88° ENE 18:50:22 10° SSE
STARLINK-77 3.5 18:40:29 10° W 18:44:30 77° S 18:45:56 39° ESE
STARLINK-1036 3.5 18:40:41 10° W 18:44:49 80° S 18:46:21 38° E
STARLINK-25 3.5 18:42:06 10° W 18:46:08 76° S 18:47:29 40° ESE
Cosmos 2221 Rocket 3.6 18:41:42 10° NNW 18:46:15 90° E 18:50:44 10° S
SPOT 3 Rocket 3.6 18:42:12 16° SE 18:46:17 61° ENE 18:51:27 10° N
ATLAS 3B R/B 3.0 18:39:49 10° NW 18:46:20 52° NNE 18:49:57 27° E
STARLINK-1055 3.8 18:42:35 10° SW 18:46:37 52° SSE 18:47:45 39° ESE
STARLINK-48 4.5 18:44:02 10° W 18:47:41 39° SSW 18:49:20 25° SSE
Cosmos 389 Rocket 2.7 18:44:27 10° N 18:48:00 49° ENE 18:48:26 46° E
STARLINK-71 3.5 18:43:59 10° W 18:48:01 74° S 18:49:18 41° ESE
STARLINK-1035 3.6 18:43:47 10° W 18:48:03 81° S 18:49:34 39° E
Cosmos 2369 Rocket 3.6 18:43:09 10° WSW 18:48:24 37° NW 18:53:42 10° NNE
STARLINK-79 3.5 18:45:26 10° W 18:49:28 75° S 18:50:42 43° ESE
Cosmos 220 Rocket 3.9 18:45:11 10° SSW 18:49:29 88° ESE 18:53:46 10° NNE
STARLINK-1044 3.5 18:45:40 10° W 18:49:49 81° S 18:51:08 42° E
STARLINK-1007 3.1 18:47:18 10° W 18:50:43 72° S 18:51:17 56° SE
STARLINK-78 3.5 18:47:07 10° W 18:51:09 74° S 18:52:19 44° ESE
STARLINK 1040 2.8 18:48:29 10° W 18:51:15 60° SSW 18:51:15 60° SSW
STARLINK-1022 3.8 18:47:31 10° SW 18:51:34 54° SSE 18:52:31 43° ESE
Cosmos 2150 Rocket 4.0 18:46:23 10° NNW 18:51:51 85° ENE 18:55:53 19° SSE
Cosmos 540 Rocket 3.6 18:47:29 10° S 18:52:26 50° ESE 18:57:25 10° NE
ARGOS 3.1 18:47:19 10° SSE 18:52:46 88° ENE 18:58:14 10° NNW
STARLINK-57 3.5 18:48:52 10° W 18:52:53 73° SSW 18:53:59 45° ESE
MOS 1 4.4 18:47:32 10° SSE 18:53:11 79° WSW 18:58:53 10° NNW
STARLINK-64 3.5 18:50:05 10° W 18:53:39 60° SSW 18:54:22 47° SSE
STARLINK-1010 2.9 18:50:33 10° W 18:53:49 70° S 18:54:09 63° SE
Cosmos 1602 4.3 18:50:11 10° SSW 18:54:00 59° WNW 18:57:50 10° N
Cosmos 1125 Rocket 3.6 18:48:50 10° NNW 18:54:07 59° ENE 18:56:24 33° SE
STARLINK-49 3.5 18:50:24 10° W 18:54:26 73° S 18:55:28 47° ESE
Meteor 1-14 Rocket 4.3 18:49:53 10° SSW 18:55:25 78° WNW 19:01:05 10° NNE
STARLINK-61 3.8 18:51:48 10° W 18:55:39 58° SSW 18:56:38 42° SE
Cosmos 1500 3.3 18:55:14 46° SE 18:55:50 51° E 18:59:36 10° NNE
Cosmos 1570 Rocket 3.9 18:50:38 10° SSW 18:55:52 75° ESE 19:01:11 10° NNE
STARLINK-27 3.5 18:52:04 10° W 18:56:05 73° S 18:57:04 49° ESE
STARLINK-1042 3.7 18:52:28 10° WSW 18:56:32 57° SSE 18:57:18 48° ESE
Gbstr 26 Del rocket 3.3 18:52:26 10° WSW 18:56:32 55° SSE 18:57:50 41° ESE
APEX 4.3 18:51:32 10° SSW 18:56:45 58° ESE 19:03:10 10° NE
Ariane Rocket 3.7 18:52:23 10° S 18:57:23 55° WSW 19:02:26 10° NNW
STARLINK-74 3.5 18:53:42 10° W 18:57:43 72° SSW 18:58:38 50° SE
STARLINK-1027 3.6 18:54:25 10° W 18:58:42 83° S 18:59:47 49° E
STARLINK-39 3.5 18:55:21 10° W 18:59:22 72° SSW 19:00:13 52° SE
STARLINK-1037 3.5 18:55:25 10° W 18:59:34 82° S 19:00:31 52° E
Terra 4.0 19:01:46 12° NE 19:01:46 12° NE 19:02:54 10° NNE
STARLINK-31 3.5 18:57:03 10° W 19:01:05 71° SSW 19:01:51 53° SE
STARLINK-1056 3.7 18:57:26 10° WSW 19:01:31 59° SSE 19:02:06 52° ESE
CZ-2C R/B 3.3 18:55:53 10° SSE 19:01:40 83° WSW 19:07:16 10° NNW
STARLINK-69 3.6 18:58:52 10° W 19:02:53 68° SSW 19:03:36 54° SE
Cosmos 2034 Rocket 4.0 18:56:53 10° SSW 19:03:02 81° W 19:09:16 10° N
SL-24 DEB 4.3 18:58:32 10° S 19:03:13 80° W 19:07:53 10° N
STARLINK-21 3.6 19:00:21 10° W 19:04:22 69° SSW 19:05:02 56° SE
STARLINK-1059 3.5 19:00:35 10° W 19:04:45 82° S 19:05:29 59° E
STARLINK-45 3.6 19:02:13 10° W 19:06:13 67° SSW 19:06:49 56° SE
Resurs 1-3 3.5 19:05:23 46° SE 19:06:28 64° ENE 19:10:49 10° N
STARLINK-1054 3.6 19:02:23 10° WSW 19:06:28 61° SSE 19:06:52 57° SE
STARLINK-70 3.6 19:03:47 10° W 19:07:48 67° SSW 19:08:20 58° SSE
Cosmos 1428 Rocket 4.3 19:02:18 10° N 19:08:26 71° ENE 19:12:32 22° SSE
STARLINK-76 3.5 19:05:20 10° W 19:09:20 67° SSW 19:09:49 60° SSE
STARLINK-1057 3.5 19:05:35 10° W 19:09:44 83° S 19:10:17 66° ESE
ADEOS Rocket 4.0 19:02:44 10° NNE 19:10:26 65° WNW 19:17:56 10° SW
Cosmos 1655 Rocket 4.4 19:04:23 10° N 19:10:31 44° ENE 19:12:02 38° ESE
STARLINK-23 3.5 19:06:58 10° W 19:10:58 67° SSW 19:11:23 61° SSE
STARLINK-1062 3.6 19:07:20 10° WSW 19:11:26 63° SSE 19:11:38 62° SE
Meteor 1-11 Rocket 3.7 19:06:19 10° S 19:11:45 56° E 19:17:09 10° NNE
STARLINK-32 3.5 19:08:37 10° W 19:12:38 66° SSW 19:12:59 62° SSE
Spot 2 Rocket 4.1 19:13:56 38° ENE 19:13:59 38° ENE 19:18:41 10° N
STARLINK-40 3.6 19:10:18 10° W 19:14:18 65° SSW 19:14:35 62° SSE
STARLINK-1034 3.4 19:10:33 10° W 19:14:43 83° S 19:15:03 73° ESE
Meteor 2-9 4.5 19:09:32 10° S 19:14:55 85° E 19:20:21 10° NNE
ATLAS 2AS CENTAUR R/B 4.0 19:08:40 10° S 19:12:55 26° SE 19:12:55 26° SE
STARLINK-44 3.6 19:11:57 10° W 19:15:56 64° SSW 19:16:10 63° S
STARLINK-1053 3.6 19:12:17 10° WSW 19:16:24 65° SSE 19:16:25 65° SSE
Cosmos 1092 Rocket 4.2 19:10:12 10° NNW 19:16:34 75° W 19:22:53 10° S
STARLINK-37 3.6 19:13:42 10° W 19:17:41 62° SSW 19:17:52 61° S
STARLINK-22 4.0 19:15:53 10° W 19:18:34 41° SW 19:18:34 41° SW
Cosmos 2279 Rocket 4.2 19:18:24 42° ESE 19:19:10 44° E 19:25:01 10° NNE
STARLINK-36 3.6 19:15:13 10° W 19:19:13 63° SSW 19:19:19 63° S
SJ 16-02 4.2 19:16:42 10° NW 19:19:36 17° W 19:22:29 10° SW
STARLINK-1068 3.4 19:15:32 10° W 19:19:41 83° S 19:19:50 80° SE
STARLINK-41 4.1 19:17:30 10° W 19:20:07 38° SW 19:20:07 38° SW
Meteor 2-13 Rocket 4.3 19:14:48 10° N 19:20:52 67° ENE 19:23:05 39° SE
STARLINK-68 3.7 19:17:05 10° W 19:21:04 60° SSW 19:21:07 60° SSW
STARLINK-1061 3.6 19:17:15 10° WSW 19:21:12 66° S 19:21:12 66° S
USA 238 DEB 4.2 19:14:56 10° NW 19:21:57 62° SW 19:26:33 24° SSE
USA 238 4.2 19:15:02 10° NW 19:22:03 62° SW 19:26:36 24° SSE
STARLINK-63 3.7 19:18:38 10° W 19:22:36 60° SSW 19:22:36 60° SSW
GP-B 2.9 19:22:36 69° SE 19:22:56 73° E 19:27:24 10° N
STARLINK-35 3.7 19:20:13 10° W 19:24:07 61° SSW 19:24:07 61° SSW
SJ-6B 3.8 19:23:32 22° SSW 19:25:39 44° W 19:29:22 10° NNW
Cosmos 1634 Rocket 3.9 19:19:26 10° S 19:25:44 74° E 19:32:04 10° NNE
STARLINK-51 3.8 19:21:51 10° W 19:25:41 59° SSW 19:25:41 59° SSW
STARLINK-1067 3.7 19:22:14 10° WSW 19:26:00 64° SSW 19:26:00 64° SSW
Cosmos 1943 Rocket 4.3 19:23:09 10° W 19:27:25 22° NNW 19:31:41 10° NNE
STARLINK-30 3.8 19:23:30 10° W 19:27:16 58° SW 19:27:16 58° SW
Cosmos 1066 Rocket 4.2 19:21:54 10° N 19:27:43 74° ENE 19:29:30 46° SSE
STARLINK-72 3.9 19:25:10 10° W 19:28:52 57° SW 19:28:52 57° SW
STARLINK-1060 3.6 19:25:29 10° W 19:29:24 77° SW 19:29:24 77° SW
Cosmos 2297 Rocket 2.6 19:24:16 10° NW 19:29:51 60° WSW 19:32:43 28° S
STARLINK-1016 4.2 19:27:04 10° W 19:29:36 41° WSW 19:29:36 41° WSW
STARLINK-50 3.9 19:26:50 10° W 19:30:28 55° SW 19:30:28 55° SW
STARLINK-1058 3.9 19:27:09 10° WSW 19:30:44 61° SW 19:30:44 61° SW
STARLINK-59 4.0 19:28:35 10° W 19:32:09 53° SW 19:32:09 53° SW
STARLINK-1008 4.3 19:29:10 10° W 19:31:38 39° WSW 19:31:38 39° WSW
STARLINK-56 4.1 19:30:08 10° W 19:33:39 52° SW 19:33:39 52° SW
STARLINK-1030 3.8 19:30:28 10° W 19:34:11 69° WSW 19:34:11 69° WSW
Resurs 01 Rocket 1.5 19:34:45 84° ENE 19:34:45 84° ENE 19:39:10 10° NNW
Lacrosse 4 Rocket 4.1 19:32:46 10° NW 19:34:56 13° N 19:37:00 10° NNE
USA 186 4.1 19:35:06 18° WSW 19:35:45 19° W 19:37:57 10° NW
STARLINK-73 4.1 19:31:48 10° W 19:35:14 51° SW 19:35:14 51° SW
STARLINK-1043 4.0 19:32:08 10° WSW 19:35:31 56° SW 19:35:31 56° SW
STARLINK-38 4.2 19:33:28 10° W 19:36:51 49° SW 19:36:51 49° SW
Cosmos 1975 Rocket 4.5 19:34:39 10° N 19:36:53 26° NNE 19:36:53 26° NNE
STARLINK-65 4.3 19:35:06 10° W 19:38:25 48° WSW 19:38:25 48° WSW
STARLINK-1020 3.9 19:35:27 10° W 19:38:58 62° WSW 19:38:58 62° WSW
Cosmos 1733 Rocket 3.1 19:38:48 55° SSW 19:39:42 77° WNW 19:44:06 10° N
STARLINK-53 4.4 19:36:52 10° W 19:40:07 45° WSW 19:40:07 45° WSW
H-2A R/B 3.5 19:35:58 10° SSW 19:41:00 38° W 19:46:05 10° NNW
STARLINK-1065 4.2 19:36:54 10° WSW 19:40:07 51° WSW 19:40:07 51° WSW
Lacrosse 5 1.7 19:39:05 10° WSW 19:44:11 84° SSE 19:44:11 84° SSE
MetOp-B 4.0 19:44:09 68° ENE 19:44:13 68° ENE 19:49:34 10° NNW
STARLINK-1052 4.2 19:40:24 10° W 19:43:44 56° W 19:43:44 56° W
Cosmos 1441 Rocket 4.3 19:45:37 42° NNW 19:45:37 42° NNW 19:48:30 10° N
STARLINK-1063 4.4 19:42:04 10° WSW 19:45:05 46° WSW 19:45:05 46° WSW
Cosmos 1378 Rocket 3.8 19:44:05 10° NNW 19:48:09 66° WNW 19:48:09 66° WNW
STARLINK-1047 4.3 19:44:26 10° W 19:47:40 52° W 19:47:40 52° W
Cosmos 2227 Rocket 2.9 19:43:39 10° NW 19:49:05 50° WSW 19:51:18 32° SSW
ERS-1 Rocket 4.1 19:53:55 32° NNE 19:53:55 32° NNE 19:57:09 10° N
Cosmos 2082 3.9 19:50:28 10° NW 19:56:10 67° WSW 19:57:08 57° SSW
USA 234 3.2 19:58:02 61° E 19:59:17 80° NNE 20:05:50 10° WNW
Cosmos 1867 4.3 20:00:01 10° NW 20:04:53 42° NNE 20:04:53 42° NNE
Cosmos 2180 Rocket 4.4 20:08:10 70° NE 20:08:10 70° NE 20:13:52 10° NNE
Lacrosse 5 rocket 3.5 20:15:42 10° WNW 20:18:40 24° WSW 20:18:40 24° WSW
CENTAUR R/B 3.5 20:13:31 10° NW 20:21:13 58° SW 20:23:32 45° S
CZ-2C R/B 3.2 20:15:57 10° NNE 20:20:08 52° N 20:20:08 52° N
Cosmos 1844 Rocket 4.3 20:17:10 10° NNW 20:21:11 24° NNE 20:21:11 24° NNE
Cosmos 2266 Rocket 3.9 20:17:21 10° N 20:23:29 84° N 20:23:29 84° N
Cosmos 2263 Rocket 2.8 20:20:48 10° NNW 20:25:14 49° N 20:25:14 49° N
SPOT 5 4.3 20:33:42 33° N 20:33:42 33° N 20:36:28 10° N
ATLAS 3B R/B 2.8 20:30:39 10° NW 20:37:13 63° SW 20:37:13 63° SW
Terra 3.8 20:40:39 23° N 20:40:39 23° N 20:42:30 10° N
ATLAS 2AS CENTAUR R/B 4.3 20:57:32 10° SW 21:14:24 - NE 21:00:34 26° SW
Resurs 01 Rocket 4.3 21:12:18 15° W 21:12:18 15° W 21:14:23 10° NW
Lacrosse 4 Rocket 4.4 21:12:26 10° NNW 21:13:19 13° NNW 21:13:19 13° NNW
Lacrosse 5 4.4 21:22:23 10° W 21:23:24 16° W 21:23:24 16° W
Cosmos 2278 Rocket 4.3 21:25:28 10° NNW 21:28:20 20° N 21:28:20 20° N
USA 234 4.5 21:45:22 34° W 21:45:22 34° W 21:48:59 10° WNW
Cosmos 2263 Rocket 4.5 22:05:09 10° NW 22:06:56 19° WNW 22:06:56 19° WNW
SL-16 R/B 4.5 23:33:37 23° NNE 23:33:37 23° NNE 23:36:18 10° N
